CZ-4 DEB, 26443

Orbit data source: Space-Track

CZ-4 DEB, 26443 is space debris in SSO originally from a launch on Thu, 14 Oct 1999 UTC launched from the Taiyaun Space Center, China (TSC). Debris objects in space refer to the collection of defunct objects orbiting the Earth. Examples of debris include non-operational satellites, rocket bodies, and fragments generated from explosions, collisions, or faulty payload assembly.

Loading next visibility...
Identifier
26443, 1999-057KQ
Orbit
SSO
Country
Flag of CNCN / PRC
Related business
Manufacturer
Unknown
Mission
Spacecraft
Bus & Motor
Unknown
Mass
Unknown
Launch date (UTC)
1999-10-14 (26 years ago)
Launch vehicle
Unknown
Launch site
Taiyaun Space Center, China (TSC)
Object type
Payload
Rocket body
Debris
Shape & HBR
Unknown shape, 0.1 m
Radar Cross Section
Small (<0.1 m²)

Expand to show TLE details & history
Last TLE update: 18 hours ago

TLE from 18 hours ago
0 CZ-4 DEB
1 26443U 99057KQ  25303.12775609  .00000970  00000-0  28942-3 0  9993
2 26443  98.6541 355.7972 0093886  65.5822 350.0972 14.42823458340367
Epoch: 2025-10-30T03:03Z
TLE epoch observation values (Epoch: 2025-10-30T03:03:58.126Z)
Latitude
54.65723°
Longitude
-101.21147°
Altitude
692.277 km
Speed
7.55 km/s
True Right ascension
22h 53m 53s
True Declination
54° 29' 36"
Sunlit
Object was in full shadow at epoch
Visualization orbit readout
Latitude
Unknown
Longitude
Unknown
Altitude
Unknown
Speed
Unknown
Apparent Right ascension
Unknown
Apparent Declination
Unknown
Sunlit
N/A
Visualization observer readout
Local Sidereal Time
17:02:13
Azimuth
Unknown
Elevation
Unknown
Doppler factor
Unknown
Orbital elements
Apogee altitude
813.199 km
Perigee altitude
679.421 km
Semi-major axis
7,124.447 km
Eccentricity
0.00939
Inclination
98.6541°
RAAN
355.7972°
Arg. of periapsis
65.5822°
True anomaly
349.91001°
Mean anomaly
350.0972°
Eccentric anomaly
350.00383°
Mean motion
3.60925 °/min
Orbital period
99.74 mins
BSTAR
0.00028942
Loading maneuver chart data...
Computing Atmospheric mass density...

Documentation

Showing up to 5 results
|